Year,Month,Day,Hour,Minute,Value (Times are PST for temperature in C)
2018,07,14,00,00,14.80
2018,07,14,00,01,14.80
2018,07,14,00,02,14.80
2018,07,14,00,03,14.80
2018,07,14,00,04,14.80
2018,07,14,00,05,14.80
2018,07,14,00,06,14.80
2018,07,14,00,07,14.80
2018,07,14,00,08,14.80
2018,07,14,00,09,14.70
2018,07,14,00,10,14.70
2018,07,14,00,11,14.70
2018,07,14,00,12,14.70
2018,07,14,00,13,14.70
2018,07,14,00,14,14.70
2018,07,14,00,15,14.60
2018,07,14,00,16,14.60
2018,07,14,00,17,14.60
2018,07,14,00,18,14.60
2018,07,14,00,19,14.60
2018,07,14,00,20,14.60
2018,07,14,00,21,14.60
2018,07,14,00,22,14.60
2018,07,14,00,23,14.60
2018,07,14,00,24,14.60
2018,07,14,00,25,14.60
2018,07,14,00,26,14.60
2018,07,14,00,27,14.60
2018,07,14,00,28,14.60
2018,07,14,00,29,14.60
2018,07,14,00,30,14.60
2018,07,14,00,31,14.60
2018,07,14,00,32,14.60
2018,07,14,00,33,14.60
2018,07,14,00,34,14.60
2018,07,14,00,35,14.60
2018,07,14,00,36,14.60
2018,07,14,00,37,14.60
2018,07,14,00,38,14.60
2018,07,14,00,39,14.60
2018,07,14,00,40,14.60
2018,07,14,00,41,14.60
2018,07,14,00,42,14.60
2018,07,14,00,43,14.60
2018,07,14,00,44,14.60
2018,07,14,00,45,14.60
2018,07,14,00,46,14.60
2018,07,14,00,47,14.60
2018,07,14,00,48,14.60
2018,07,14,00,49,14.60
2018,07,14,00,50,14.60
2018,07,14,00,51,14.60
2018,07,14,00,52,14.70
2018,07,14,00,53,14.70
2018,07,14,00,54,14.70
2018,07,14,00,55,14.70
2018,07,14,00,56,14.70
2018,07,14,00,57,14.60
2018,07,14,00,58,14.60
2018,07,14,00,59,14.60
2018,07,14,01,00,14.60
2018,07,14,01,01,14.60
2018,07,14,01,02,14.60
2018,07,14,01,03,14.60
2018,07,14,01,04,14.60
2018,07,14,01,05,14.50
2018,07,14,01,06,14.50
2018,07,14,01,07,14.50
2018,07,14,01,08,14.50
2018,07,14,01,09,14.50
2018,07,14,01,10,14.50
2018,07,14,01,11,14.50
2018,07,14,01,12,14.50
2018,07,14,01,13,14.50
2018,07,14,01,14,14.50
2018,07,14,01,15,14.50
2018,07,14,01,16,14.50
2018,07,14,01,17,14.50
2018,07,14,01,18,14.50
2018,07,14,01,19,14.60
2018,07,14,01,20,14.60
2018,07,14,01,21,14.50
2018,07,14,01,22,14.60
2018,07,14,01,23,14.50
2018,07,14,01,24,14.50
2018,07,14,01,25,14.50
2018,07,14,01,26,14.50
2018,07,14,01,27,14.40
2018,07,14,01,28,14.40
2018,07,14,01,29,14.40
2018,07,14,01,30,14.40
2018,07,14,01,31,14.40
2018,07,14,01,32,14.40
2018,07,14,01,33,14.40
2018,07,14,01,34,14.40
2018,07,14,01,35,14.40
2018,07,14,01,36,14.40
2018,07,14,01,37,14.40
2018,07,14,01,38,14.40
2018,07,14,01,39,14.40
2018,07,14,01,40,14.40
2018,07,14,01,41,14.40
2018,07,14,01,42,14.40
2018,07,14,01,43,14.40
2018,07,14,01,44,14.40
2018,07,14,01,45,14.40
2018,07,14,01,46,14.40
2018,07,14,01,47,14.40
2018,07,14,01,48,14.40
2018,07,14,01,49,14.40
2018,07,14,01,50,14.30
2018,07,14,01,51,14.30
2018,07,14,01,52,14.30
2018,07,14,01,53,14.30
2018,07,14,01,54,14.30
2018,07,14,01,55,14.30
2018,07,14,01,56,14.30
2018,07,14,01,57,14.30
2018,07,14,01,58,14.30
2018,07,14,01,59,14.30
2018,07,14,02,00,14.30
2018,07,14,02,01,14.30
2018,07,14,02,02,14.30
2018,07,14,02,03,14.30
2018,07,14,02,04,14.30
2018,07,14,02,05,14.30
2018,07,14,02,06,14.20
2018,07,14,02,07,14.20
2018,07,14,02,08,14.20
2018,07,14,02,09,14.20
2018,07,14,02,10,14.10
2018,07,14,02,11,14.10
2018,07,14,02,12,14.10
2018,07,14,02,13,14.10
2018,07,14,02,14,14.10
2018,07,14,02,15,14.10
2018,07,14,02,16,14.10
2018,07,14,02,17,14.10
2018,07,14,02,18,14.10
2018,07,14,02,19,14.10
2018,07,14,02,20,14.10
2018,07,14,02,21,14.10
2018,07,14,02,22,14.00
2018,07,14,02,23,14.00
2018,07,14,02,24,14.00
2018,07,14,02,25,14.00
2018,07,14,02,26,14.00
2018,07,14,02,27,13.90
2018,07,14,02,28,13.90
2018,07,14,02,29,13.90
2018,07,14,02,30,13.90
2018,07,14,02,31,13.90
2018,07,14,02,32,13.80
2018,07,14,02,33,13.80
2018,07,14,02,34,13.80
2018,07,14,02,35,13.80
2018,07,14,02,36,13.80
2018,07,14,02,37,13.90
2018,07,14,02,38,13.90
2018,07,14,02,39,13.90
2018,07,14,02,40,13.90
2018,07,14,02,41,13.90
2018,07,14,02,42,13.90
2018,07,14,02,43,13.90
2018,07,14,02,44,13.90
2018,07,14,02,45,13.90
2018,07,14,02,46,13.90
2018,07,14,02,47,13.90
2018,07,14,02,48,13.90
2018,07,14,02,49,13.80
2018,07,14,02,50,13.80
2018,07,14,02,51,13.80
2018,07,14,02,52,13.80
2018,07,14,02,53,13.80
2018,07,14,02,54,13.80
2018,07,14,02,55,13.80
2018,07,14,02,56,13.80
2018,07,14,02,57,13.80
2018,07,14,02,58,13.80
2018,07,14,02,59,13.80
2018,07,14,03,00,13.80
2018,07,14,03,01,13.80
2018,07,14,03,02,13.80
2018,07,14,03,03,13.80
2018,07,14,03,04,13.80
2018,07,14,03,05,13.80
2018,07,14,03,06,13.80
2018,07,14,03,07,13.80
2018,07,14,03,08,13.70
2018,07,14,03,09,13.70
2018,07,14,03,10,13.70
2018,07,14,03,11,13.60
2018,07,14,03,12,13.50
2018,07,14,03,13,13.50
2018,07,14,03,14,13.40
2018,07,14,03,15,13.40
2018,07,14,03,16,13.40
2018,07,14,03,17,13.30
2018,07,14,03,18,13.30
2018,07,14,03,19,13.30
2018,07,14,03,20,13.20
2018,07,14,03,21,13.20
2018,07,14,03,22,13.10
2018,07,14,03,23,13.10
2018,07,14,03,24,13.10
2018,07,14,03,25,13.10
2018,07,14,03,26,13.10
2018,07,14,03,27,13.10
2018,07,14,03,28,13.10
2018,07,14,03,29,13.10
2018,07,14,03,30,13.10
2018,07,14,03,31,13.10
2018,07,14,03,32,13.10
2018,07,14,03,33,13.10
2018,07,14,03,34,13.10
2018,07,14,03,35,13.10
2018,07,14,03,36,13.10
2018,07,14,03,37,13.10
2018,07,14,03,38,13.10
2018,07,14,03,39,13.10
2018,07,14,03,40,13.10
2018,07,14,03,41,13.20
2018,07,14,03,42,13.20
2018,07,14,03,43,13.20
2018,07,14,03,44,13.20
2018,07,14,03,45,13.20
2018,07,14,03,46,13.20
2018,07,14,03,47,13.20
2018,07,14,03,48,13.20
2018,07,14,03,49,13.20
2018,07,14,03,50,13.20
2018,07,14,03,51,13.20
2018,07,14,03,52,13.20
2018,07,14,03,53,13.20
2018,07,14,03,54,13.20
2018,07,14,03,55,13.20
2018,07,14,03,56,13.20
2018,07,14,03,57,13.20
2018,07,14,03,58,13.30
2018,07,14,03,59,13.30
2018,07,14,04,00,13.30
2018,07,14,04,01,13.30
2018,07,14,04,02,13.30
2018,07,14,04,03,13.30
2018,07,14,04,04,13.30
2018,07,14,04,05,13.20
2018,07,14,04,06,13.20
2018,07,14,04,07,13.20
2018,07,14,04,08,13.20
2018,07,14,04,09,13.20
2018,07,14,04,10,13.20
2018,07,14,04,11,13.20
2018,07,14,04,12,13.20
2018,07,14,04,13,13.20
2018,07,14,04,14,13.20
2018,07,14,04,15,13.20
2018,07,14,04,16,13.20
2018,07,14,04,17,13.20
2018,07,14,04,18,13.20
2018,07,14,04,19,13.20
2018,07,14,04,20,13.20
2018,07,14,04,21,13.20
2018,07,14,04,22,13.20
2018,07,14,04,23,13.20
2018,07,14,04,24,13.20
2018,07,14,04,25,13.10
2018,07,14,04,26,13.10
2018,07,14,04,27,13.10
2018,07,14,04,28,13.10
2018,07,14,04,29,13.10
2018,07,14,04,30,13.10
2018,07,14,04,31,13.10
2018,07,14,04,32,13.10
2018,07,14,04,33,13.10
2018,07,14,04,34,13.10
2018,07,14,04,35,13.10
2018,07,14,04,36,13.20
2018,07,14,04,37,13.20
2018,07,14,04,38,13.20
2018,07,14,04,39,13.20
2018,07,14,04,40,13.30
2018,07,14,04,41,13.30
2018,07,14,04,42,13.30
2018,07,14,04,43,13.20
2018,07,14,04,44,13.20
2018,07,14,04,45,13.20
2018,07,14,04,46,13.10
2018,07,14,04,47,13.10
2018,07,14,04,48,13.00
2018,07,14,04,49,13.00
2018,07,14,04,50,12.90
2018,07,14,04,51,12.90
2018,07,14,04,52,12.90
2018,07,14,04,53,12.80
2018,07,14,04,54,12.80
2018,07,14,04,55,12.80
2018,07,14,04,56,12.80
2018,07,14,04,57,12.80
2018,07,14,04,58,12.80
2018,07,14,04,59,12.80
2018,07,14,05,00,12.80
2018,07,14,05,01,12.80
2018,07,14,05,02,12.80
2018,07,14,05,03,12.80
2018,07,14,05,04,12.80
2018,07,14,05,05,12.80
2018,07,14,05,06,12.80
2018,07,14,05,07,12.80
2018,07,14,05,08,12.80
2018,07,14,05,09,12.80
2018,07,14,05,10,12.80
2018,07,14,05,11,12.80
2018,07,14,05,12,12.80
2018,07,14,05,13,12.80
2018,07,14,05,14,12.80
2018,07,14,05,15,12.80
2018,07,14,05,16,12.90
2018,07,14,05,17,12.90
2018,07,14,05,18,12.90
2018,07,14,05,19,12.90
2018,07,14,05,20,12.90
2018,07,14,05,21,12.90
2018,07,14,05,22,12.90
2018,07,14,05,23,12.90
2018,07,14,05,24,12.90
2018,07,14,05,25,12.90
2018,07,14,05,26,12.90
2018,07,14,05,27,12.90
2018,07,14,05,28,12.90
2018,07,14,05,29,12.80
2018,07,14,05,30,12.80
2018,07,14,05,31,12.80
2018,07,14,05,32,12.80
2018,07,14,05,33,12.80
2018,07,14,05,34,12.70
2018,07,14,05,35,12.70
2018,07,14,05,36,12.60
2018,07,14,05,37,12.60
2018,07,14,05,38,12.50
2018,07,14,05,39,12.50
2018,07,14,05,40,12.40
2018,07,14,05,41,12.40
2018,07,14,05,42,12.40
2018,07,14,05,43,12.40
2018,07,14,05,44,12.40
2018,07,14,05,45,12.40
2018,07,14,05,46,12.40
2018,07,14,05,47,12.40
2018,07,14,05,48,12.30
2018,07,14,05,49,12.30
2018,07,14,05,50,12.30
2018,07,14,05,51,12.30
2018,07,14,05,52,12.30
2018,07,14,05,53,12.30
2018,07,14,05,54,12.30
2018,07,14,05,55,12.40
2018,07,14,05,56,12.40
2018,07,14,05,57,12.40
2018,07,14,05,58,12.40
2018,07,14,05,59,12.40
2018,07,14,06,00,12.40
2018,07,14,06,01,12.40
2018,07,14,06,02,12.40
2018,07,14,06,03,12.40
2018,07,14,06,04,12.40
2018,07,14,06,05,12.40
2018,07,14,06,06,12.40
2018,07,14,06,07,12.50
2018,07,14,06,08,12.50
2018,07,14,06,09,12.50
2018,07,14,06,10,12.60
2018,07,14,06,11,12.60
2018,07,14,06,12,12.60
2018,07,14,06,13,12.60
2018,07,14,06,14,12.60
2018,07,14,06,15,12.70
2018,07,14,06,16,12.70
2018,07,14,06,17,12.70
2018,07,14,06,18,12.70
2018,07,14,06,19,12.70
2018,07,14,06,20,12.70
2018,07,14,06,21,12.70
2018,07,14,06,22,12.70
2018,07,14,06,23,12.70
2018,07,14,06,24,12.70
2018,07,14,06,25,12.70
2018,07,14,06,26,12.70
2018,07,14,06,27,12.70
2018,07,14,06,28,12.80
2018,07,14,06,29,12.80
2018,07,14,06,30,12.80
2018,07,14,06,31,12.80
2018,07,14,06,32,12.90
2018,07,14,06,33,13.00
2018,07,14,06,34,13.10
2018,07,14,06,35,13.20
2018,07,14,06,36,13.30
2018,07,14,06,37,13.40
2018,07,14,06,38,13.40
2018,07,14,06,39,13.50
2018,07,14,06,40,13.60
2018,07,14,06,41,13.60
2018,07,14,06,42,13.60
2018,07,14,06,43,13.70
2018,07,14,06,44,13.70
2018,07,14,06,45,13.70
2018,07,14,06,46,13.70
2018,07,14,06,47,13.80
2018,07,14,06,48,13.80
2018,07,14,06,49,13.80
2018,07,14,06,50,13.80
2018,07,14,06,51,13.80
2018,07,14,06,52,13.90
2018,07,14,06,53,13.90
2018,07,14,06,54,13.90
2018,07,14,06,55,14.00
2018,07,14,06,56,14.10
2018,07,14,06,57,14.10
2018,07,14,06,58,14.10
2018,07,14,06,59,14.20
2018,07,14,07,00,14.20
2018,07,14,07,01,14.30
2018,07,14,07,02,14.30
2018,07,14,07,03,14.40
2018,07,14,07,04,14.40
2018,07,14,07,05,14.50
2018,07,14,07,06,14.60
2018,07,14,07,07,14.60
2018,07,14,07,08,14.60
2018,07,14,07,09,14.70
2018,07,14,07,10,14.70
2018,07,14,07,11,14.80
2018,07,14,07,12,14.80
2018,07,14,07,13,14.90
2018,07,14,07,14,14.90
2018,07,14,07,15,15.00
2018,07,14,07,16,15.10
2018,07,14,07,17,15.10
2018,07,14,07,18,15.20
2018,07,14,07,19,15.20
2018,07,14,07,20,15.30
2018,07,14,07,21,15.30
2018,07,14,07,22,15.40
2018,07,14,07,23,15.40
2018,07,14,07,24,15.50
2018,07,14,07,25,15.50
2018,07,14,07,26,15.50
2018,07,14,07,27,15.50
2018,07,14,07,28,15.50
2018,07,14,07,29,15.50
2018,07,14,07,30,15.40
2018,07,14,07,31,15.40
2018,07,14,07,32,15.40
2018,07,14,07,33,15.40
2018,07,14,07,34,15.40
2018,07,14,07,35,15.40
2018,07,14,07,36,15.40
2018,07,14,07,37,15.40
2018,07,14,07,38,15.40
2018,07,14,07,39,15.40
2018,07,14,07,40,15.40
2018,07,14,07,41,15.40
2018,07,14,07,42,15.40
2018,07,14,07,43,15.40
2018,07,14,07,44,15.40
2018,07,14,07,45,15.40
2018,07,14,07,46,15.40
2018,07,14,07,47,15.50
2018,07,14,07,48,15.50
2018,07,14,07,49,15.60
2018,07,14,07,50,15.60
2018,07,14,07,51,15.60
2018,07,14,07,52,15.60
2018,07,14,07,53,15.60
2018,07,14,07,54,15.60
2018,07,14,07,55,15.70
2018,07,14,07,56,15.70
2018,07,14,07,57,15.70
2018,07,14,07,58,15.70
2018,07,14,07,59,15.80
2018,07,14,08,00,15.80
2018,07,14,08,01,15.80
2018,07,14,08,02,15.80
2018,07,14,08,03,15.90
2018,07,14,08,04,15.90
2018,07,14,08,05,16.00
2018,07,14,08,06,16.00
2018,07,14,08,07,16.10
2018,07,14,08,08,16.10
2018,07,14,08,09,16.20
2018,07,14,08,10,16.20
2018,07,14,08,11,16.30
2018,07,14,08,12,16.30
2018,07,14,08,13,16.30
2018,07,14,08,14,16.30
2018,07,14,08,15,16.40
2018,07,14,08,16,16.40
2018,07,14,08,17,16.50
2018,07,14,08,18,16.60
2018,07,14,08,19,16.70
2018,07,14,08,20,16.70
2018,07,14,08,21,16.80
2018,07,14,08,22,16.90
2018,07,14,08,23,17.00
2018,07,14,08,24,17.00
2018,07,14,08,25,17.10
2018,07,14,08,26,17.20
2018,07,14,08,27,17.30
2018,07,14,08,28,17.30
2018,07,14,08,29,17.30
2018,07,14,08,30,17.30
2018,07,14,08,31,17.40
2018,07,14,08,32,17.40
2018,07,14,08,33,17.40
2018,07,14,08,34,17.40
2018,07,14,08,35,17.40
2018,07,14,08,36,17.40
2018,07,14,08,37,17.40
2018,07,14,08,38,17.40
2018,07,14,08,39,17.40
2018,07,14,08,40,17.40
2018,07,14,08,41,17.50
2018,07,14,08,42,17.50
2018,07,14,08,43,17.60
2018,07,14,08,44,17.60
2018,07,14,08,45,17.60
2018,07,14,08,46,17.60
2018,07,14,08,47,17.70
2018,07,14,08,48,17.70
2018,07,14,08,49,17.70
2018,07,14,08,50,17.80
2018,07,14,08,51,17.90
2018,07,14,08,52,17.90
2018,07,14,08,53,17.80
2018,07,14,08,54,17.90
2018,07,14,08,55,17.90
2018,07,14,08,56,17.90
2018,07,14,08,57,17.90
2018,07,14,08,58,18.00
2018,07,14,08,59,18.00
2018,07,14,09,00,18.00
2018,07,14,09,01,18.00
2018,07,14,09,02,18.00
2018,07,14,09,03,18.00
2018,07,14,09,04,18.00
2018,07,14,09,05,18.00
2018,07,14,09,06,18.00
2018,07,14,09,07,18.10
2018,07,14,09,08,18.10
2018,07,14,09,09,18.10
2018,07,14,09,10,18.10
2018,07,14,09,11,18.20
2018,07,14,09,12,18.20
2018,07,14,09,13,18.20
2018,07,14,09,14,18.30
2018,07,14,09,15,18.30
2018,07,14,09,16,18.40
2018,07,14,09,17,18.40
2018,07,14,09,18,18.50
2018,07,14,09,19,18.50
2018,07,14,09,20,18.60
2018,07,14,09,21,18.60
2018,07,14,09,22,18.60
2018,07,14,09,23,18.70
2018,07,14,09,24,18.70
2018,07,14,09,25,18.70
2018,07,14,09,26,18.80
2018,07,14,09,27,18.80
2018,07,14,09,28,18.90
2018,07,14,09,29,18.90
2018,07,14,09,30,18.90
2018,07,14,09,31,18.90
2018,07,14,09,32,19.00
2018,07,14,09,33,19.00
2018,07,14,09,34,19.00
2018,07,14,09,35,19.00
2018,07,14,09,36,19.00
2018,07,14,09,37,18.90
2018,07,14,09,38,18.90
2018,07,14,09,39,18.80
2018,07,14,09,40,18.70
2018,07,14,09,41,18.60
2018,07,14,09,42,18.50
2018,07,14,09,43,18.60
2018,07,14,09,44,18.60
2018,07,14,09,45,18.60
2018,07,14,09,46,18.60
2018,07,14,09,47,18.60
2018,07,14,09,48,18.70
2018,07,14,09,49,18.70
2018,07,14,09,50,18.70
2018,07,14,09,51,18.80
2018,07,14,09,52,18.80
2018,07,14,09,53,18.80
2018,07,14,09,54,18.80
2018,07,14,09,55,18.90
2018,07,14,09,56,18.90
2018,07,14,09,57,18.90
2018,07,14,09,58,18.90
2018,07,14,09,59,19.00
2018,07,14,10,00,19.00
2018,07,14,10,01,19.10
2018,07,14,10,02,19.10
2018,07,14,10,03,19.20
2018,07,14,10,04,19.30
2018,07,14,10,05,19.40
2018,07,14,10,06,19.40
2018,07,14,10,07,19.40
2018,07,14,10,08,19.50
2018,07,14,10,09,19.50
2018,07,14,10,10,19.40
2018,07,14,10,11,19.40
2018,07,14,10,12,19.40
2018,07,14,10,13,19.50
2018,07,14,10,14,19.50
2018,07,14,10,15,19.60
2018,07,14,10,16,19.70
2018,07,14,10,17,19.80
2018,07,14,10,18,19.90
2018,07,14,10,19,19.90
2018,07,14,10,20,20.00
2018,07,14,10,21,20.00
2018,07,14,10,22,20.10
2018,07,14,10,23,20.10
2018,07,14,10,24,20.20
2018,07,14,10,25,20.20
2018,07,14,10,26,20.30
2018,07,14,10,27,20.40
2018,07,14,10,28,20.50
2018,07,14,10,29,20.60
2018,07,14,10,30,20.70
2018,07,14,10,31,20.70
2018,07,14,10,32,20.80
2018,07,14,10,33,20.90
2018,07,14,10,34,20.90
2018,07,14,10,35,20.90
2018,07,14,10,36,21.00
2018,07,14,10,37,21.10
2018,07,14,10,38,21.20
2018,07,14,10,39,21.30
2018,07,14,10,40,21.40
2018,07,14,10,41,21.50
2018,07,14,10,42,21.60
2018,07,14,10,43,21.70
2018,07,14,10,44,21.80
2018,07,14,10,45,21.90
2018,07,14,10,46,22.10
2018,07,14,10,47,22.30
2018,07,14,10,48,22.50
2018,07,14,10,49,22.60
2018,07,14,10,50,22.80
2018,07,14,10,51,23.00
2018,07,14,10,52,23.10
2018,07,14,10,53,23.20
2018,07,14,10,54,23.30
2018,07,14,10,55,23.40
2018,07,14,10,56,23.40
2018,07,14,10,57,23.50
2018,07,14,10,58,23.50
2018,07,14,10,59,23.40
2018,07,14,11,00,23.30
2018,07,14,11,01,23.20
2018,07,14,11,02,23.20
2018,07,14,11,03,23.30
2018,07,14,11,04,23.30
2018,07,14,11,05,23.30
2018,07,14,11,06,23.20
2018,07,14,11,07,23.20
2018,07,14,11,08,23.20
2018,07,14,11,09,23.30
2018,07,14,11,10,23.30
2018,07,14,11,11,23.30
2018,07,14,11,12,23.30
2018,07,14,11,13,23.30
2018,07,14,11,14,23.40
2018,07,14,11,15,23.50
2018,07,14,11,16,23.50
2018,07,14,11,17,23.60
2018,07,14,11,18,23.60
2018,07,14,11,19,23.60
2018,07,14,11,20,23.50
2018,07,14,11,21,23.50
2018,07,14,11,22,23.50
2018,07,14,11,23,23.50
2018,07,14,11,24,23.50
2018,07,14,11,25,23.50
2018,07,14,11,26,23.60
2018,07,14,11,27,23.60
2018,07,14,11,28,23.70
2018,07,14,11,29,23.70
2018,07,14,11,30,23.70
2018,07,14,11,31,23.70
2018,07,14,11,32,23.70
2018,07,14,11,33,23.70
2018,07,14,11,34,23.70
2018,07,14,11,35,23.50
2018,07,14,11,36,23.20
2018,07,14,11,37,23.00
2018,07,14,11,38,22.80
2018,07,14,11,39,22.70
2018,07,14,11,40,22.70
2018,07,14,11,41,22.60
2018,07,14,11,42,22.50
2018,07,14,11,43,22.40
2018,07,14,11,44,22.30
2018,07,14,11,45,22.10
2018,07,14,11,46,22.10
2018,07,14,11,47,22.10
2018,07,14,11,48,22.00
2018,07,14,11,49,22.00
2018,07,14,11,50,22.00
2018,07,14,11,51,22.00
2018,07,14,11,52,22.10
2018,07,14,11,53,22.20
2018,07,14,11,54,22.30
2018,07,14,11,55,22.40
2018,07,14,11,56,22.40
2018,07,14,11,57,22.40
2018,07,14,11,58,22.40
2018,07,14,11,59,22.50
2018,07,14,12,00,22.60
2018,07,14,12,01,22.60
2018,07,14,12,02,22.70
2018,07,14,12,03,22.80
2018,07,14,12,04,23.00
2018,07,14,12,05,23.20
2018,07,14,12,06,23.40
2018,07,14,12,07,23.50
2018,07,14,12,08,23.70
2018,07,14,12,09,23.80
2018,07,14,12,10,23.90
2018,07,14,12,11,23.90
2018,07,14,12,12,24.00
2018,07,14,12,13,24.00
2018,07,14,12,14,24.10
2018,07,14,12,15,24.20
2018,07,14,12,16,24.20
2018,07,14,12,17,24.30
2018,07,14,12,18,24.30
2018,07,14,12,19,24.40
2018,07,14,12,20,24.40
2018,07,14,12,21,24.40
2018,07,14,12,22,24.50
2018,07,14,12,23,24.60
2018,07,14,12,24,24.60
2018,07,14,12,25,24.70
2018,07,14,12,26,24.70
2018,07,14,12,27,24.80
2018,07,14,12,28,24.80
2018,07,14,12,29,24.80
2018,07,14,12,30,24.80
2018,07,14,12,31,24.90
2018,07,14,12,32,24.90
2018,07,14,12,33,24.90
2018,07,14,12,34,24.90
2018,07,14,12,35,24.80
2018,07,14,12,36,24.70
2018,07,14,12,37,24.70
2018,07,14,12,38,24.70
2018,07,14,12,39,24.70
2018,07,14,12,40,24.80
2018,07,14,12,41,24.80
2018,07,14,12,42,24.80
2018,07,14,12,43,24.80
2018,07,14,12,44,24.90
2018,07,14,12,45,25.00
2018,07,14,12,46,25.10
2018,07,14,12,47,25.10
2018,07,14,12,48,25.10
2018,07,14,12,49,25.10
2018,07,14,12,50,25.10
2018,07,14,12,51,25.00
2018,07,14,12,52,25.00
2018,07,14,12,53,25.10
2018,07,14,12,54,25.10
2018,07,14,12,55,25.10
2018,07,14,12,56,25.20
2018,07,14,12,57,25.20
2018,07,14,12,58,25.30
2018,07,14,12,59,25.30
2018,07,14,13,00,25.30
2018,07,14,13,01,25.30
2018,07,14,13,02,25.30
2018,07,14,13,03,25.30
2018,07,14,13,04,25.30
2018,07,14,13,05,25.40
2018,07,14,13,06,25.40
2018,07,14,13,07,25.40
2018,07,14,13,08,25.40
2018,07,14,13,09,25.40
2018,07,14,13,10,25.50
2018,07,14,13,11,25.50
2018,07,14,13,12,25.60
2018,07,14,13,13,25.70
2018,07,14,13,14,25.70
2018,07,14,13,15,25.70
2018,07,14,13,16,25.70
2018,07,14,13,17,25.70
2018,07,14,13,18,25.80
2018,07,14,13,19,25.90
2018,07,14,13,20,26.00
2018,07,14,13,21,26.10
2018,07,14,13,22,26.20
2018,07,14,13,23,26.20
2018,07,14,13,24,26.20
2018,07,14,13,25,26.30
2018,07,14,13,26,26.30
2018,07,14,13,27,26.30
2018,07,14,13,28,26.30
2018,07,14,13,29,26.30
2018,07,14,13,30,26.30
2018,07,14,13,31,26.30
2018,07,14,13,32,26.40
2018,07,14,13,33,26.30
2018,07,14,13,34,26.30
2018,07,14,13,35,26.30
2018,07,14,13,36,26.30
2018,07,14,13,37,26.40
2018,07,14,13,38,26.40
2018,07,14,13,39,26.50
2018,07,14,13,40,26.50
2018,07,14,13,41,26.50
2018,07,14,13,42,26.60
2018,07,14,13,43,26.60
2018,07,14,13,44,26.80
2018,07,14,13,45,26.80
2018,07,14,13,46,26.80
2018,07,14,13,47,26.80
2018,07,14,13,48,26.80
2018,07,14,13,49,26.80
2018,07,14,13,50,26.80
2018,07,14,13,51,26.90
2018,07,14,13,52,27.00
2018,07,14,13,53,27.10
2018,07,14,13,54,27.30
2018,07,14,13,55,27.30
2018,07,14,13,56,27.40
2018,07,14,13,57,27.40
2018,07,14,13,58,27.40
2018,07,14,13,59,27.40
2018,07,14,14,00,27.40
2018,07,14,14,01,27.50
2018,07,14,14,02,27.50
2018,07,14,14,03,27.50
2018,07,14,14,04,27.50
2018,07,14,14,05,27.50
2018,07,14,14,06,27.40
2018,07,14,14,07,27.50
2018,07,14,14,08,27.60
2018,07,14,14,09,27.60
2018,07,14,14,10,27.60
2018,07,14,14,11,27.60
2018,07,14,14,12,27.70
2018,07,14,14,13,27.70
2018,07,14,14,14,27.70
2018,07,14,14,15,27.80
2018,07,14,14,16,27.80
2018,07,14,14,17,27.80
2018,07,14,14,18,27.80
2018,07,14,14,19,27.80
2018,07,14,14,20,27.80
2018,07,14,14,21,27.70
2018,07,14,14,22,27.70
2018,07,14,14,23,27.80
2018,07,14,14,24,27.90
2018,07,14,14,25,27.90
2018,07,14,14,26,28.00
2018,07,14,14,27,28.00
2018,07,14,14,28,28.00
2018,07,14,14,29,28.00
2018,07,14,14,30,28.10
2018,07,14,14,31,28.10
2018,07,14,14,32,28.10
2018,07,14,14,33,28.20
2018,07,14,14,34,28.30
2018,07,14,14,35,28.30
2018,07,14,14,36,28.40
2018,07,14,14,37,28.60
2018,07,14,14,38,28.60
2018,07,14,14,39,28.60
2018,07,14,14,40,28.60
2018,07,14,14,41,28.50
2018,07,14,14,42,28.50
2018,07,14,14,43,28.40
2018,07,14,14,44,28.40
2018,07,14,14,45,28.30
2018,07,14,14,46,28.30
2018,07,14,14,47,28.30
2018,07,14,14,48,28.40
2018,07,14,14,49,28.40
2018,07,14,14,50,28.30
2018,07,14,14,51,28.30
2018,07,14,14,52,28.30
2018,07,14,14,53,28.30
2018,07,14,14,54,28.30
2018,07,14,14,55,28.30
2018,07,14,14,56,28.40
2018,07,14,14,57,28.40
2018,07,14,14,58,28.40
2018,07,14,14,59,28.40
2018,07,14,15,00,28.40
2018,07,14,15,01,28.40
2018,07,14,15,02,28.30
2018,07,14,15,03,28.30
2018,07,14,15,04,28.20
2018,07,14,15,05,28.30
2018,07,14,15,06,28.30
2018,07,14,15,07,28.40
2018,07,14,15,08,28.40
2018,07,14,15,09,28.40
2018,07,14,15,10,28.40
2018,07,14,15,11,28.50
2018,07,14,15,12,28.50
2018,07,14,15,13,28.50
2018,07,14,15,14,28.50
2018,07,14,15,15,28.60
2018,07,14,15,16,28.70
2018,07,14,15,17,28.70
2018,07,14,15,18,28.80
2018,07,14,15,19,28.80
2018,07,14,15,20,28.80
2018,07,14,15,21,28.80
2018,07,14,15,22,28.80
2018,07,14,15,23,28.70
2018,07,14,15,24,28.70
2018,07,14,15,25,28.70
2018,07,14,15,26,28.80
2018,07,14,15,27,28.90
2018,07,14,15,28,28.90
2018,07,14,15,29,29.00
2018,07,14,15,30,29.00
2018,07,14,15,31,29.00
2018,07,14,15,32,29.10
2018,07,14,15,33,29.10
2018,07,14,15,34,29.10
2018,07,14,15,35,29.10
2018,07,14,15,36,29.10
2018,07,14,15,37,29.00
2018,07,14,15,38,28.70
2018,07,14,15,39,28.50
2018,07,14,15,40,28.10
2018,07,14,15,41,27.40
2018,07,14,15,42,26.90
2018,07,14,15,43,26.40
2018,07,14,15,44,26.10
2018,07,14,15,45,26.00
2018,07,14,15,46,25.90
2018,07,14,15,47,25.90
2018,07,14,15,48,26.00
2018,07,14,15,49,26.00
2018,07,14,15,50,26.10
2018,07,14,15,51,26.10
2018,07,14,15,52,26.10
2018,07,14,15,53,26.10
2018,07,14,15,54,25.90
2018,07,14,15,55,25.80
2018,07,14,15,56,25.80
2018,07,14,15,57,25.80
2018,07,14,15,58,25.90
2018,07,14,15,59,25.80
2018,07,14,16,00,25.60
2018,07,14,16,01,25.50
2018,07,14,16,02,25.40
2018,07,14,16,03,25.30
2018,07,14,16,04,25.30
2018,07,14,16,05,25.30
2018,07,14,16,06,25.30
2018,07,14,16,07,25.40
2018,07,14,16,08,25.40
2018,07,14,16,09,25.40
2018,07,14,16,10,25.40
2018,07,14,16,11,25.30
2018,07,14,16,12,25.30
2018,07,14,16,13,25.20
2018,07,14,16,14,25.10
2018,07,14,16,15,25.10
2018,07,14,16,16,25.10
2018,07,14,16,17,25.10
2018,07,14,16,18,25.20
2018,07,14,16,19,25.20
2018,07,14,16,20,25.30
2018,07,14,16,21,25.40
2018,07,14,16,22,25.50
2018,07,14,16,23,25.60
2018,07,14,16,24,25.70
2018,07,14,16,25,25.70
2018,07,14,16,26,25.80
2018,07,14,16,27,25.80
2018,07,14,16,28,25.90
2018,07,14,16,29,25.90
2018,07,14,16,30,25.90
2018,07,14,16,31,25.90
2018,07,14,16,32,26.00
2018,07,14,16,33,26.10
2018,07,14,16,34,26.10
2018,07,14,16,35,26.20
2018,07,14,16,36,26.40
2018,07,14,16,37,26.50
2018,07,14,16,38,26.50
2018,07,14,16,39,26.50
2018,07,14,16,40,26.50
2018,07,14,16,41,26.60
2018,07,14,16,42,26.70
2018,07,14,16,43,26.80
2018,07,14,16,44,26.90
2018,07,14,16,45,27.00
2018,07,14,16,46,27.10
2018,07,14,16,47,27.20
2018,07,14,16,48,27.30
2018,07,14,16,49,27.40
2018,07,14,16,50,27.50
2018,07,14,16,51,27.60
2018,07,14,16,52,27.70
2018,07,14,16,53,27.90
2018,07,14,16,54,28.00
2018,07,14,16,55,28.20
2018,07,14,16,56,28.40
2018,07,14,16,57,28.60
2018,07,14,16,58,28.80
2018,07,14,16,59,28.90
2018,07,14,17,00,29.10
2018,07,14,17,01,29.20
2018,07,14,17,02,29.30
2018,07,14,17,03,29.40
2018,07,14,17,04,29.50
2018,07,14,17,05,29.60
2018,07,14,17,06,29.60
2018,07,14,17,07,29.70
2018,07,14,17,08,29.80
2018,07,14,17,09,29.90
2018,07,14,17,10,30.00
2018,07,14,17,11,29.90
2018,07,14,17,12,29.50
2018,07,14,17,13,29.30
2018,07,14,17,14,29.00
2018,07,14,17,15,28.80
2018,07,14,17,16,28.60
2018,07,14,17,17,28.40
2018,07,14,17,18,28.20
2018,07,14,17,19,28.00